This is the latest recevied weather packets stored in our database for station/object KF6RAL-6. If no packets are shown the sender has not sent any weather packets the latest 10 day(s).
| Time | Temp. | Humidity | Pressure | Rain* | Wind** | Luminosity | Snow |
|---|---|---|---|---|---|---|---|
| 1777429200 | 12.22° C | 41% | 1017.8 hPa | 0 mm | - | - | - |
| 1777428778 | 12.78° C | 40% | 1017.9 hPa | 0 mm | - | - | - |
| 1777428357 | 12.78° C | 42% | 1017.8 hPa | 0 mm | - | - | - |
| 1777427936 | 12.78° C | 38% | 1017.9 hPa | 0 mm | - | - | - |
| 1777427515 | 13.33° C | 37% | 1017.6 hPa | 0 mm | - | - | - |
| 1777427094 | 13.33° C | 38% | 1017.6 hPa | 0 mm | - | - | - |
| 1777426673 | 13.33° C | 33% | 1017.7 hPa | 0 mm | - | - | - |
| 1777426252 | 13.33° C | 34% | 1017.7 hPa | 0 mm | - | - | - |
| 1777425831 | 13.33° C | 36% | 1017.7 hPa | 0 mm | - | - | - |
| 1777424568 | 13.33° C | 38% | 1017.8 hPa | 0 mm | - | - | - |
| 1777424147 | 13.33° C | 39% | 1017.8 hPa | 0 mm | - | - | - |
| 1777423726 | 13.33° C | 40% | 1017.5 hPa | 0 mm | - | - | - |
| 1777423305 | 13.89° C | 41% | 1017.4 hPa | 0 mm | - | - | - |
| 1777422884 | 13.89° C | 41% | 1017.9 hPa | 0 mm | - | - | - |
| 1777422046 | 13.33° C | 40% | 1017.7 hPa | 0 mm | - | - | - |
| 1777421621 | 13.33° C | 39% | 1017.9 hPa | 0 mm | - | - | - |
| 1777421200 | 13.33° C | 43% | 1017.8 hPa | 0 mm | - | - | - |
| 1777420779 | 13.33° C | 38% | 1017.9 hPa | 0 mm | - | - | - |
| 1777420358 | 13.33° C | 41% | 1017.8 hPa | 0 mm | - | - | - |
| 1777419937 | 13.33° C | 41% | 1017.9 hPa | 0 mm | - | - | - |
| 1777419518 | 12.78° C | 44% | 1017.8 hPa | 0 mm | - | - | - |
| 1777418674 | 12.22° C | 49% | 1018.1 hPa | 0 mm | - | - | - |
| 1777418254 | 12.22° C | 50% | 1018.3 hPa | 0 mm | - | - | - |
| 1777417832 | 12.22° C | 49% | 1018.3 hPa | 0 mm | - | - | - |
| 1777417411 | 12.22° C | 48% | 1018.4 hPa | 0 mm | - | - | - |
* Rain latest hour (hover to see other rain measurements)
** Current wind speed in m/s (hover to see current wind gust speed)